| time (UTC) | temp C | wind direction | speed KPH | gust KPH | rain 1hr cm | rain 24hr cm | rain mn cm | humidity % | barometer mb |
| 20260906154603 | 28 | 102 | 1.6 | 9.7 | 0.00 | 0.00 | 0.00 | 78 | 1012.9 |
| 20260906153105 | 28 | 95 | 0.0 | 8.0 | 0.00 | 0.00 | 0.00 | 78 | 1012.9 |
| 20260906144608 | 28 | 225 | 1.6 | 4.8 | 0.00 | 0.00 | 0.00 | 76 | 1012.4 |
| 20260906143016 | 28 | 156 | 1.6 | 6.4 | 0.00 | 0.00 | 0.00 | 77 | 1012.4 |
| 20260906141507 | 28 | 262 | 3.2 | 11.3 | 0.00 | 0.00 | 0.00 | 76 | 1012.2 |
| 20260906140011 | 28 | 118 | 1.6 | 6.4 | 0.00 | 0.00 | 0.00 | 77 | 1012.1 |
| 20260906134518 | 28 | 130 | 3.2 | 9.7 | 0.00 | 0.00 | 0.00 | 80 | 1012.1 |
| 20260906133006 | 26 | 232 | 0.0 | 3.2 | 0.00 | 0.00 | 0.00 | 84 | 1012.0 |
| 20260906131506 | 25 | 232 | 0.0 | 3.2 | 0.00 | 0.00 | 0.00 | 85 | 1011.7 |
| 20260906130008 | 25 | 232 | 0.0 | 1.6 | 0.00 | 0.00 | 0.00 | 86 | 1011.4 |
| 20260906124504 | 25 | 232 | 0.0 | 1.6 | 0.00 | 0.00 | 0.00 | 86 | 1011.2 |
| 20260906123006 | 25 | 232 | 0.0 | 1.6 | 0.00 | 0.00 | 0.00 | 85 | 1011.1 |
| 20260906121504 | 25 | 232 | 0.0 | 1.6 | 0.00 | 0.00 | 0.00 | 85 | 1010.9 |
| 20260906120006 | 25 | 232 | 0.0 | 1.6 | 0.00 | 0.00 | 0.00 | 85 | 1010.7 |
| 20260906114508 | 25 | 232 | 0.0 | 0.0 | 0.00 | 0.00 | 0.00 | 84 | 1010.5 |
| 20260906113005 | 25 | 232 | 0.0 | 0.0 | 0.00 | 0.00 | 0.00 | 84 | 1010.1 |
| 20260906111504 | 25 | 232 | 0.0 | 0.0 | 0.00 | 0.00 | 0.00 | 84 | 1010.0 |
| 20260906110008 | 25 | 232 | 0.0 | 3.2 | 0.00 | 0.00 | 0.00 | 83 | 1009.8 |
| 20260906104506 | 26 | 232 | 0.0 | 1.6 | 0.00 | 0.00 | 0.00 | 83 | 1009.8 |
| 20260906103004 | 26 | 232 | 0.0 | 1.6 | 0.00 | 0.00 | 0.00 | 83 | 1009.9 |
| 20260906101504 | 26 | 232 | 0.0 | 3.2 | 0.00 | 0.00 | 0.00 | 82 | 1009.8 |
| 20260906100006 | 26 | 232 | 0.0 | 1.6 | 0.00 | 0.00 | 0.00 | 82 | 1009.7 |
| 20260906094504 | 26 | 232 | 1.6 | 4.8 | 0.00 | 0.00 | 0.00 | 81 | 1009.9 |
| 20260906093003 | 26 | 256 | 1.6 | 4.8 | 0.00 | 0.00 | 0.00 | 81 | 1009.9 |
| 20260906091504 | 26 | 236 | 1.6 | 4.8 | 0.00 | 0.00 | 0.00 | 81 | 1009.9 |
| 20260906090007 | 26 | 228 | 0.0 | 3.2 | 0.00 | 0.00 | 0.00 | 80 | 1009.9 |
| 20260906084503 | 26 | 228 | 1.6 | 6.4 | 0.00 | 0.00 | 0.00 | 80 | 1009.8 |
| 20260906083002 | 26 | 238 | 1.6 | 4.8 | 0.00 | 0.00 | 0.00 | 79 | 1009.8 |
| 20260906081503 | 26 | 242 | 1.6 | 6.4 | 0.00 | 0.00 | 0.00 | 78 | 1009.9 |
| 20260906080006 | 27 | 233 | 0.0 | 6.4 | 0.00 | 0.00 | 0.00 | 78 | 1010.1 |
| 20260906074504 | 27 | 222 | 0.0 | 4.8 | 0.00 | 0.00 | 0.00 | 77 | 1010.3 |
| 20260906073003 | 27 | 207 | 1.6 | 6.4 | 0.00 | 0.00 | 0.00 | 76 | 1010.4 |
| 20260906071503 | 27 | 223 | 1.6 | 6.4 | 0.00 | 0.00 | 0.00 | 76 | 1010.5 |
| 20260906070005 | 27 | 261 | 3.2 | 8.0 | 0.00 | 0.00 | 0.00 | 75 | 1010.7 |
| 20260906064503 | 27 | 197 | 1.6 | 6.4 | 0.00 | 0.00 | 0.00 | 75 | 1010.8 |
| 20260906063004 | 28 | 224 | 1.6 | 8.0 | 0.00 | 0.00 | 0.00 | 74 | 1010.9 |
| 20260906061504 | 28 | 309 | 0.0 | 6.4 | 0.00 | 0.00 | 0.00 | 74 | 1011.1 |
| 20260906060010 | 28 | 225 | 1.6 | 4.8 | 0.00 | 0.00 | 0.00 | 73 | 1011.2 |
| 20260906054505 | 28 | 130 | 1.6 | 9.7 | 0.00 | 0.00 | 0.00 | 73 | 1011.1 |
| 20260906053006 | 28 | 332 | 0.0 | 6.4 | 0.00 | 0.00 | 0.00 | 72 | 1010.8 |
| 20260906051506 | 28 | 67 | 0.0 | 6.4 | 0.00 | 0.00 | 0.00 | 71 | 1010.9 |
| 20260906050011 | 28 | 355 | 0.0 | 4.8 | 0.00 | 0.00 | 0.00 | 71 | 1011.0 |
| 20260906044506 | 29 | 87 | 0.0 | 8.0 | 0.00 | 0.00 | 0.00 | 70 | 1011.0 |
| 20260906043008 | 29 | 128 | 0.0 | 12.9 | 0.00 | 0.00 | 0.00 | 70 | 1011.0 |
| 20260906041507 | 29 | 86 | 1.6 | 11.3 | 0.00 | 0.00 | 0.00 | 69 | 1011.0 |
| 20260906040009 | 30 | 109 | 4.8 | 14.5 | 0.00 | 0.00 | 0.00 | 68 | 1010.9 |
| 20260906034509 | 30 | 43 | 1.6 | 12.9 | 0.00 | 0.00 | 0.00 | 66 | 1010.9 |
| 20260906033006 | 30 | 176 | 6.4 | 12.9 | 0.00 | 0.00 | 0.00 | 65 | 1010.9 |
| 20260906031506 | 30 | 76 | 3.2 | 11.3 | 0.00 | 0.00 | 0.00 | 62 | 1010.7 |
| 20260906030008 | 30 | 103 | 6.4 | 14.5 | 0.00 | 0.00 | 0.00 | 61 | 1010.4 |
| 20260906024505 | 31 | 71 | 3.2 | 12.9 | 0.00 | 0.00 | 0.00 | 60 | 1010.0 |
| 20260906023015 | 31 | 50 | 3.2 | 14.5 | 0.00 | 0.00 | 0.00 | 59 | 1009.5 |
| 20260906021506 | 31 | 58 | 3.2 | 9.7 | 0.00 | 0.00 | 0.00 | 59 | 1009.2 |
| 20260906020007 | 31 | 95 | 3.2 | 8.0 | 0.00 | 0.00 | 0.00 | 58 | 1008.9 |
| 20260906014505 | 31 | 59 | 3.2 | 14.5 | 0.00 | 0.00 | 0.00 | 56 | 1008.9 |
| 20260906013005 | 32 | 46 | 3.2 | 8.0 | 0.00 | 0.00 | 0.00 | 54 | 1008.8 |
| 20260906011505 | 32 | 119 | 3.2 | 12.9 | 0.00 | 0.00 | 0.00 | 53 | 1008.8 |
| 20260906010007 | 33 | 56 | 4.8 | 12.9 | 0.00 | 0.00 | 0.00 | 50 | 1008.7 |
| 20260906004509 | 33 | 70 | 4.8 | 14.5 | 0.00 | 0.00 | 0.00 | 47 | 1008.5 |
| 20260906003005 | 34 | 44 | 4.8 | 16.1 | 0.00 | 0.00 | 0.00 | 45 | 1008.4 |
| 20260906001505 | 35 | 83 | 6.4 | 14.5 | 0.00 | 0.00 | 0.00 | 43 | 1008.4 |
| 20260906000007 | 35 | 46 | 3.2 | 8.0 | 0.00 | 0.00 | 0.00 | 42 | 1008.3 |
| 20260905234505 | 36 | 74 | 3.2 | 8.0 | 0.00 | 0.00 | 0.00 | 41 | 1008.3 |
| 20260905233013 | 36 | 105 | 1.6 | 9.7 | 0.00 | 0.00 | 0.00 | 40 | 1008.2 |
| 20260905231505 | 36 | 56 | 4.8 | 9.7 | 0.00 | 0.00 | 0.00 | 39 | 1008.2 |
| 20260905230008 | 37 | 138 | 3.2 | 11.3 | 0.00 | 0.00 | 0.00 | 37 | 1008.3 |
| 20260905224505 | 36 | 234 | 1.6 | 8.0 | 0.00 | 0.00 | 0.00 | 37 | 1008.2 |
| 20260905223006 | 37 | 44 | 3.2 | 6.4 | 0.00 | 0.00 | 0.00 | 37 | 1008.3 |
| 20260905221507 | 37 | 63 | 1.6 | 12.9 | 0.00 | 0.00 | 0.00 | 37 | 1008.5 |
| 20260905220008 | 37 | 82 | 1.6 | 11.3 | 0.00 | 0.00 | 0.00 | 37 | 1008.6 |
| 20260905214505 | 36 | 33 | 1.6 | 9.7 | 0.00 | 0.00 | 0.00 | 39 | 1008.6 |
| 20260905213006 | 37 | 59 | 4.8 | 14.5 | 0.00 | 0.00 | 0.00 | 38 | 1008.6 |
| 20260905211515 | 37 | 25 | 3.2 | 11.3 | 0.00 | 0.00 | 0.00 | 38 | 1008.7 |
| 20260905210009 | 37 | 95 | 3.2 | 12.9 | 0.00 | 0.00 | 0.00 | 38 | 1008.8 |
| 20260905204505 | 36 | 61 | 4.8 | 12.9 | 0.00 | 0.00 | 0.00 | 38 | 1009.2 |
| 20260905203005 | 37 | 49 | 6.4 | 12.9 | 0.00 | 0.00 | 0.00 | 39 | 1009.5 |
| 20260905201505 | 37 | 236 | 1.6 | 9.7 | 0.00 | 0.00 | 0.00 | 39 | 1009.7 |
| 20260905200012 | 36 | 90 | 3.2 | 14.5 | 0.00 | 0.00 | 0.00 | 40 | 1009.8 |
| 20260905194505 | 36 | 36 | 4.8 | 16.1 | 0.00 | 0.00 | 0.00 | 41 | 1010.1 |
| 20260905193005 | 36 | 80 | 3.2 | 9.7 | 0.00 | 0.00 | 0.00 | 42 | 1010.4 |
| 20260905191505 | 36 | 92 | 6.4 | 11.3 | 0.00 | 0.00 | 0.00 | 40 | 1010.6 |
| 20260905190007 | 36 | 228 | 0.0 | 14.5 | 0.00 | 0.00 | 0.00 | 42 | 1010.8 |
| 20260905184513 | 36 | 200 | 3.2 | 19.3 | 0.00 | 0.00 | 0.00 | 39 | 1011.0 |
| 20260905183005 | 35 | 345 | 4.8 | 14.5 | 0.00 | 0.00 | 0.00 | 44 | 1011.3 |
| 20260905181505 | 35 | 120 | 3.2 | 11.3 | 0.00 | 0.00 | 0.00 | 45 | 1011.5 |
| 20260905180007 | 35 | 111 | 3.2 | 9.7 | 0.00 | 0.00 | 0.00 | 48 | 1012.1 |
| 20260905174505 | 35 | 82 | 3.2 | 12.9 | 0.00 | 0.00 | 0.00 | 48 | 1012.4 |
| 20260905173006 | 33 | 69 | 0.0 | 8.0 | 0.00 | 0.00 | 0.00 | 52 | 1012.5 |
| 20260905171504 | 33 | 244 | 3.2 | 14.5 | 0.00 | 0.00 | 0.00 | 53 | 1012.6 |
| 20260905170006 | 33 | 216 | 3.2 | 11.3 | 0.00 | 0.00 | 0.00 | 57 | 1012.7 |
| 20260905164513 | 32 | 225 | 8.0 | 16.1 | 0.00 | 0.00 | 0.00 | 56 | 1012.8 |
| 20260905163005 | 32 | 268 | 1.6 | 12.9 | 0.00 | 0.00 | 0.00 | 61 | 1012.8 |
| 20260905161507 | 31 | 238 | 4.8 | 16.1 | 0.00 | 0.00 | 0.00 | 63 | 1012.9 |
| 20260905160017 | 31 | 272 | 4.8 | 14.5 | 0.00 | 0.00 | 0.00 | 65 | 1012.9 |